Location: Unspecified
(45.3712°N, 0.6436°E)
Time: 04:25:10
(UTC+02:00)

Tiangong 2 - Visible Passes

Search period start: 22 May 2018 00:00
Search period end: 01 June 2018 00:00
Orbit: 382 x 385 km, 42.8° (Epoch: 21 May)

Date Brightness Start Highest point End Pass type
(mag) Time Alt. Az. Time Alt. Az. Time Alt. Az.
22 May 2.2 23:32:06 10° WSW 23:34:03 29° SSW 23:34:03 29° SSW visible
23 May 2.0 22:32:36 10° SW 22:35:23 29° SSE 22:37:44 13° ESE visible
24 May 3.0 00:08:45 10° WSW 00:09:58 21° WSW 00:09:58 21° WSW visible
24 May 1.3 23:09:03 10° WSW 23:12:06 48° S 23:13:16 30° ESE visible
25 May 1.6 22:09:25 10° WSW 22:12:22 39° SSE 22:15:21 10° E visible
25 May 1.4 23:45:48 10° W 23:48:33 48° SSW 23:48:33 48° SSW visible
26 May 1.2 22:46:02 10° WSW 22:49:08 53° S 22:51:29 16° ESE visible
27 May 3.3 00:22:41 10° W 00:23:40 17° WSW 00:23:40 17° WSW visible
27 May 1.4 23:22:52 10° W 23:25:53 45° S 23:26:29 39° SSE visible
28 May 1.3 22:23:03 10° W 22:26:07 52° S 22:29:12 10° ESE visible
28 May 2.9 23:59:51 10° W 00:01:26 21° SW 00:01:26 21° SW visible
29 May 1.8 22:59:55 10° W 23:02:50 35° SSW 23:04:10 24° SSE visible
30 May 3.0 23:37:09 10° WSW 23:39:04 18° SW 23:39:04 18° SW visible
31 May 2.4 22:37:01 10° W 22:39:43 26° SSW 22:41:47 14° SSE visible
